CAPE
2 3 2 1 1 1 1 1 1 1 0 0 0 0 0 0 0 0 0 0 0 0 0 0 0 0 0 0 0 0 0 0 0 0 0 0 0 0 0 0 0 0 0 0 0
2 2 1 1 1 1 1 1 1 0 0 0 0 0 0 0 0 0 0 0 0 0 0 0 0 0 0 0 0 0 0 0 0 0 0 0 0 0 0 0 0 0 0 0 0
2 2 2 1 1 1 1 1 0 0 2 1 0 1 0 0 0 0 0 0 0 0 0 0 0 0 0 0 0 0 0 0 0 0 0 0 0 0 0 0 0 0 0 0 0
4 3 2 2 1 1 0 0 0 0 0 1 0 0 0 0 0 0 0 0 0 0 0 0 0 0 0 0 0 0 0 0 0 0 0 0 0 0 0 0 0 0 0 0 0
4 4 3 2 2 1 0 0 1 1 0 0 0 0 0 0 0 0 0 0 0 0 0 0 0 0 0 0 0 0 0 0 0 0 0 0 0 0 0 0 0 0 0 0 0
3 3 3 1 0 0 0 0 0 0 0 0 0 0 0 0 0 0 0 0 0 0 0 0 0 0 0 0 0 0 0 0 0 0 0 0 0 0 0 0 0 0 0 0 0
1 3 2 1 0 0 0 0 0 0 0 0 0 0 0 0 0 0 0 0 0 0 0 0 0 0 0 0 0 0 0 0 0 0 0 0 0 0 0 0 0 0 0 0 0
1 1 3 1 0 0 0 0 0 0 0 0 0 0 0 0 0 0 0 0 0 0 0 0 0 0 0 0 0 0 0 0 0 0 0 0 0 0 0 0 0 0 0 0 0
0 0 2 2 0 0 0 0 0 0 0 0 0 0 0 0 0 0 0 0 0 0 0 0 0 0 0 0 0 0 0 0 0 0 0 0 0 0 0 0 0 0 0 0 0
0 1 1 1 0 0 0 0 0 0 0 0 0 0 0 0 0 0 0 0 0 0 0 0 0 0 0 0 0 0 0 0 0 0 0 0 0 0 0 0 0 0 0 0 0
0 0 1 0 0 0 0 0 0 0 0 0 0 0 0 0 0 0 0 0 0 0 0 0 0 0 0 0 0 0 0 0 0 0 0 0 0 0 0 0 0 0 0 0 0
1 2 1 0 0 0 0 0 0 0 0 0 0 0 0 0 0 0 0 0 0 0 0 0 0 0 0 0 0 0 0 0 0 0 0 0 0 0 0 0 0 0 0 0 0
1 3 1 0 0 0 0 0 0 0 0 0 0 0 0 0 0 0 0 0 0 0 0 0 0 0 0 0 0 0 0 0 0 0 0 0 0 0 0 0 0 0 0 0 0
3 1 2 0 0 0 0 0 0 0 0 0 0 0 0 0 0 0 0 0 0 0 0 0 0 0 0 0 0 0 0 0 0 0 0 0 0 0 0 0 0 0 0 0 0
2 2 2 0 0 0 0 0 0 0 0 0 0 0 0 0 0 0 0 0 0 0 0 0 11 36 39 3 7 3 0 0 0 0 0 0 0 0 0 0 0 0 0 0 0
0 1 0 0 0 0 0 0 0 0 0 0 0 0 0 0 0 0 0 0 0 0 11 9 56 39 17 16 20 6 9 8 0 1 0 0 0 0 0 0 0 0 0 0 0
0 0 0 0 0 0 0 0 0 0 0 0 0 0 0 0 0 0 0 0 4 2 19 34 99 60 11 4 16 11 12 25 12 0 0 0 0 0 0 0 0 0 0 0 0
0 0 0 0 0 0 0 0 0 0 0 0 0 0 0 0 0 0 0 0 33 32 11 5 9 0 0 15 38 12 15 39 19 11 0 0 0 0 0 0 0 0 0 0 0
0 0 0 0 0 0 0 0 0 0 0 0 0 0 0 0 0 0 0 0 13 24 14 16 13 12 3 10 52 42 10 62 4 0 5 0 0 0 0 0 0 0 0 0 0
0 0 0 0 0 0 0 0 0 0 0 0 5 1 1 3 0 0 0 0 7 15 22 28 3 39 0 0 20 35 72 65 66 1 17 0 0 0 0 0 0 0 0 0 0
0 0 0 0 0 0 0 0 0 0 0 1 3 11 12 10 10 7 6 6 13 12 14 16 20 29 54 18 1 19 37 18 11 56 2 3 0 0 0 0 0 0 0 0 0
0 0 0 0 0 0 0 0 0 0 7 4 7 15 18 18 6 11 14 28 27 18 16 59 35 3 19 23 10 4 2 6 69 11 3 0 0 1 0 0 0 0 0 0 0
0 0 0 0 0 0 0 0 0 0 3 3 7 13 17 12 5 16 17 24 12 15 46 61 64 18 31 102 63 24 1 9 13 40 43 0 1 17 0 0 0 0 0 0 0
0 0 0 0 0 0 0 0 0 0 0 5 8 5 13 17 17 5 10 5 1 13 19 34 22 12 14 3 11 17 23 24 15 26 15 21 0 0 0 0 0 0 0 0 0
0 0 0 0 2 0 1 0 0 1 10 9 2 12 11 11 10 3 2 9 5 5 12 3 9 43 44 64 8 2 0 4 23 18 23 21 5 2 0 0 0 0 0 0 0
0 0 5 0 3 5 1 0 0 2 0 0 2 8 11 10 11 4 10 8 7 5 11 34 5 17 50 64 49 4 0 0 0 0 20 7 0 0 0 0 0 0 0 0 0
0 0 1 1 3 2 3 2 3 9 1 0 4 7 7 5 8 6 3 2 6 1 2 7 14 7 6 14 15 0 4 12 1 0 6 3 0 0 0 0 0 0 0 0 0
CIN
-0 -0 -0 -0 -0 -0 -0 -0 -0 -0 -0 -0 -0 -0 -0 -0 -0 -0 -0 -0 -0 -0 -0 -0 -0 -0 -0 -0 -0 -0 -0 -0 -0 -0 -0 -0 -0 -0 -0 -0 -0 -0 -0 -0 -0
-0 -0 -0 -0 -0 -0 -0 -0 -0 -0 -0 -0 -0 -0 -0 -0 -0 -0 -0 -0 -0 -0 -0 -0 -0 -0 -0 -0 -0 -0 -0 -0 -0 -0 -0 -0 -0 -0 -0 -0 -0 -0 -0 -0 -0
-0 -0 -0 -0 -0 -0 -0 -0 -0 -0 -0 -0 -0 -0 -0 -0 -0 -0 -0 -0 -0 -0 -0 -0 -0 -0 -0 -0 -0 -0 -0 -0 -0 -0 -0 -0 -0 -0 -0 -0 -0 -0 -0 -0 -0
-0 -0 -0 -0 -0 -0 -0 -0 -0 -0 -0 -0 -0 -0 -0 -0 -0 -0 -0 -0 -0 -0 -0 -0 -0 -0 -0 -0 -0 -0 -0 -0 -0 -0 -0 -0 -0 -0 -0 -0 -0 -0 -0 -0 -0
-0 -0 -0 -0 -0 -0 -0 -0 -0 -0 -0 -0 -0 -0 -0 -0 -0 -0 -0 -0 -0 -0 -0 -0 -0 -0 -0 -0 -0 -0 -0 -0 -0 -0 -0 -0 -0 -0 -0 -0 -0 -0 -0 -0 -0
-0 -0 -0 -0 -0 -0 -0 -0 -0 -0 -0 -0 -0 -0 -0 -0 -0 -0 -0 -0 -0 -0 -0 -0 -0 -0 -0 -0 -0 -0 -0 -0 -0 -0 -0 -0 -0 -0 -0 -0 -0 -0 -0 -0 -0
-0 -0 -0 -0 -0 -0 -0 -0 -0 -0 -0 -0 -0 -0 -0 -0 -0 -0 -0 -0 -0 -0 -0 -0 -0 -0 -0 -0 -0 -0 -0 -0 -0 -0 -0 -0 -0 -0 -0 -0 -0 -0 -0 -0 -0
-0 -0 -0 -0 -0 -0 -0 -0 -0 -0 -0 -0 -0 -0 -0 -0 -0 -0 -0 -0 -0 -0 -0 -0 -0 -0 -0 -0 -0 -0 -0 -0 -0 -0 -0 -0 -0 -0 -0 -0 -0 -0 -0 -0 -0
-0 -0 -0 -0 -0 -0 -0 -0 -0 -0 -0 -0 -0 -0 -0 -0 -0 -0 -0 -0 -0 -0 -0 -0 -0 -0 -0 -0 -0 -0 -0 -0 -0 -0 -0 -0 -0 -0 -0 -0 -0 -0 -0 -0 -0
-0 -0 -0 -0 -0 -0 -0 -0 -0 -0 -0 -0 -0 -0 -0 -0 -0 -0 -0 -0 -0 -0 -0 -0 -0 -0 -0 -0 -0 -0 -0 -0 -0 -0 -0 -0 -0 -0 -0 -0 -0 -0 -0 -0 -0
-0 -0 -0 -0 -0 -0 -0 -0 -0 -0 -0 -0 -0 -0 -0 -0 -0 -0 -0 -0 -0 -0 -0 -0 -0 -0 -0 -0 -0 -0 -0 -0 -0 -0 -0 -0 -0 -0 -0 -0 -0 -0 -0 -0 -0
-0 -0 -0 -0 -0 -0 -0 -0 -0 -0 -0 -0 -0 -0 -0 -0 -0 -0 -0 -0 -0 -0 -0 -0 -0 -0 -0 -0 -0 -0 -0 -0 -0 -0 -0 -0 -0 -0 -0 -0 -0 -0 -0 -0 -0
-0 -0 -0 -0 -0 -0 -0 -0 -0 -0 -0 -0 -0 -0 -0 -0 -0 -0 -0 -0 -0 -0 -0 -0 -0 -0 -0 -0 -0 -0 -0 -0 -0 -0 -0 -0 -0 -0 -0 -0 -0 -0 -0 -0 -0
-0 -0 -0 -0 -0 -0 -0 -0 -0 -0 -0 -0 -0 -0 -0 -0 -0 -0 -0 -0 -0 -0 -0 -0 -0 -0 -0 -0 -0 -0 -0 -0 -0 -0 -0 -0 -0 -0 -0 -0 -0 -0 -0 -0 -0
-0 -0 -0 -0 -0 -0 -0 -0 -0 -0 -0 -0 -0 -0 -0 -0 -0 -0 -0 -0 -0 -0 -0 -0 -3 -3 -2 -4 -6 -5 -0 -0 -0 -0 -0 -0 -0 -0 -0 -0 -0 -0 -0 -0 -0
-0 -0 -0 -0 -0 -0 -0 -0 -0 -0 -0 -0 -0 -0 -0 -0 -0 -0 -0 -0 -0 -0 -3 -2 -4 -4 -5 -6 -8 -9 -8 -6 -0 -12 -3 -0 -1 -0 -0 -0 -0 -0 -0 -0 -0
-0 -0 -0 -0 -0 -0 -0 -0 -0 -0 -0 -0 -0 -0 -0 -0 -0 -0 -0 -0 -1 -1 -5 -2 -2 -25 -42 -7 -6 -8 -7 -8 -6 -2 -0 -0 -0 -0 -0 -0 -0 -0 -0 -0 -0
-0 -0 -0 -0 -0 -0 -0 -0 -0 -0 -0 -0 -0 -0 -0 -0 -0 -0 -0 -0 -2 -1 -4 -2 -12 -8 -0 -6 -8 -7 -10 -11 -9 -11 -0 -0 -0 -0 -0 -0 -0 -0 -0 -0 -0
-0 -0 -0 -0 -0 -0 -0 -0 -0 -0 -0 -0 -0 -0 -0 -0 -0 -0 -0 -0 -3 -3 -2 -3 -4 -3 -41 -29 -7 -3 -25 -6 -4 -1 -27 -0 -0 -0 -0 -0 -0 -0 -0 -0 -0
-0 -0 -0 -0 -0 -0 -0 -0 -0 -0 -0 -0 -1 -0 -2 -1 -0 -0 -0 -0 -2 -3 -3 -8 -2 -5 -0 -0 -6 -7 -7 -11 -6 -10 -22 -0 -0 -0 -0 -0 -0 -0 -0 -0 -0
-0 -0 -0 -0 -0 -0 -0 -0 -0 -0 -0 -0 -1 -0 -1 -1 -1 -1 -1 -3 -2 -4 -2 -8 -3 -3 -5 -11 -4 -5 -5 -18 -30 -34 -15 -7 -0 -0 -0 -0 -0 -0 -0 -0 -0
-0 -0 -0 -0 -0 -0 -0 -0 -0 -0 -0 -1 -0 -0 -1 -2 -3 -2 -1 -5 -5 -2 -14 -3 -2 -3 -8 -19 -22 -2 -1 -53 -4 -13 -63 -0 -0 -4 -0 -0 -0 -0 -0 -0 -0
-0 -0 -0 -0 -0 -0 -0 -0 -0 -0 -1 -1 -1 -1 -1 -1 -4 -0 -2 -3 -2 -4 -2 -1 -2 -2 -4 -3 -14 -8 -2 -13 -8 -5 -29 -22 -6 -6 -0 -0 -0 -0 -0 -0 -0
-0 -0 -0 -0 -0 -0 -0 -0 -0 -0 -0 -0 -0 -1 -1 -1 -2 -1 -1 -4 -6 -1 -0 -2 -9 -10 -7 -4 -8 -3 -4 -3 -3 -5 -6 -11 -0 -7 -0 -0 -0 -0 -0 -0 -0
-0 -0 -0 -0 -1 -0 -0 -0 -0 -0 -0 -0 -1 -1 -2 -0 -1 -2 -2 -2 -2 -2 -13 -2 -27 -1 -12 -11 -24 -2 -3 -2 -3 -4 -5 -9 -14 -13 -0 -0 -0 -0 -0 -0 -0
-0 -0 -0 -1 -0 -0 -0 -0 -0 -2 -0 -0 -1 -1 -1 -0 -0 -0 -1 -0 -0 -1 -1 -0 -1 -12 -18 -14 -21 -10 -1 -0 -0 -0 -4 -3 -0 -0 -0 -0 -0 -0 -0 -0 -0
-0 -0 -0 -0 -0 -0 -0 -1 -0 -0 -0 -0 -1 -0 -0 -1 -1 -1 -1 -1 -1 -0 -0 -0 -0 -1 -1 -4 -3 -0 -9 -2 -8 -0 -3 -4 -0 -0 -0 -0 -0 -0 -0 -0 -0
Wind_Speed
26 26 27 27 27 28 29 29 29 30 30 31 31 32 32 33 35 29 27 24 26 31 31 30 27 26 27 31 30 29 35 39 38 35 36 26 30 31 24 24 14 14 13 12 13
27 27 27 27 27 28 28 28 28 28 29 29 30 31 31 31 31 24 19 18 23 27 26 29 28 24 29 32 32 34 37 41 42 38 32 33 33 29 26 25 22 18 13 12 11
27 27 27 27 27 27 27 27 28 28 29 29 29 29 29 29 22 19 13 21 27 27 26 26 25 26 33 33 33 37 50 42 44 37 33 37 38 31 30 31 24 20 17 14 16
28 28 28 28 28 27 27 27 28 28 29 27 27 27 28 22 22 19 21 26 26 24 23 23 25 27 34 38 37 47 46 47 49 37 34 37 40 44 39 36 31 25 21 24 24
28 28 28 28 27 27 27 27 28 28 28 26 26 26 23 18 20 20 24 24 21 22 23 24 27 28 38 34 37 46 47 47 46 46 40 38 44 44 44 39 38 38 34 32 29
27 27 27 28 28 28 28 28 29 28 26 24 24 22 20 19 21 21 25 26 23 26 24 24 25 28 38 40 42 36 45 54 53 48 43 47 50 44 50 41 44 42 41 38 34
28 28 29 29 29 29 29 30 31 29 25 21 20 18 20 22 23 25 26 25 24 24 27 27 28 28 27 37 40 44 53 52 48 49 51 42 55 62 55 46 45 42 41 41 38
29 30 30 30 30 30 30 31 32 28 20 18 16 19 20 21 24 25 26 26 22 24 25 26 25 31 35 35 39 40 46 56 55 43 43 41 66 66 49 50 48 50 47 46 43
28 29 30 30 30 30 31 32 26 19 17 16 17 19 20 19 27 27 26 28 30 26 23 24 23 29 30 36 44 43 56 54 53 43 40 38 64 68 58 55 52 50 52 49 47
28 29 31 30 30 30 30 28 19 17 18 17 17 19 18 26 31 32 27 29 28 29 27 25 26 30 30 36 50 48 51 53 56 45 39 48 61 60 52 44 46 52 55 53 50
19 22 27 28 29 29 29 19 21 19 21 22 22 21 22 29 30 31 29 29 26 27 32 30 34 38 37 39 45 51 52 52 49 45 47 50 58 62 53 60 62 57 53 52 53
14 14 14 14 16 12 17 22 23 23 23 21 16 18 22 25 33 31 25 31 31 35 34 34 37 37 38 38 43 47 51 57 48 39 44 47 59 58 52 57 58 58 57 58 55
14 13 11 6 6 13 20 22 21 23 20 19 15 19 21 29 32 27 34 29 32 35 34 38 40 38 34 36 41 46 52 52 54 46 41 46 61 57 52 49 49 52 53 56 57
17 15 7 3 12 16 17 18 21 19 20 17 17 19 21 32 25 30 24 25 29 36 35 37 31 32 36 41 40 49 44 49 51 51 60 40 66 53 48 53 54 55 53 55 54
23 14 9 12 16 17 18 18 19 15 25 19 18 20 26 28 30 29 23 24 35 35 33 36 37 38 37 38 39 46 41 44 45 53 53 55 56 56 45 52 47 44 46 47 47
31 12 17 17 15 18 17 17 16 20 23 21 19 26 28 29 26 26 25 25 23 29 27 30 28 28 34 37 37 37 41 41 46 49 59 53 50 55 51 52 48 41 42 40 40
35 24 18 17 19 17 17 16 22 23 20 22 26 27 30 26 28 28 31 29 28 30 29 33 24 26 36 37 25 26 34 42 46 55 64 52 50 47 27 19 25 28 29 30 29
36 18 16 17 16 15 15 17 23 21 22 21 24 27 23 27 26 30 26 28 20 25 32 27 28 29 28 22 22 22 28 37 44 47 52 53 59 54 43 45 38 35 26 26 28
25 17 16 19 17 16 16 20 22 23 20 24 26 23 23 22 26 24 26 21 21 26 28 30 25 29 26 30 17 12 31 34 44 44 45 46 44 53 43 31 25 21 24 24 29
25 16 18 18 17 16 18 20 19 18 18 19 24 21 24 26 23 22 21 17 20 16 28 28 32 25 24 21 12 10 13 29 33 35 39 39 35 41 40 41 34 21 21 24 26
21 18 20 19 17 17 20 21 19 17 16 18 19 18 20 21 18 18 15 14 13 15 6 28 28 29 29 19 20 16 29 18 23 35 34 34 35 37 24 14 17 17 19 21 22
23 20 20 19 19 20 20 22 20 17 14 15 15 15 16 16 15 13 11 7 18 24 6 26 28 32 31 25 9 10 19 27 29 28 36 31 20 16 17 14 16 19 20 19 19
26 19 19 19 20 23 22 20 16 15 15 16 15 14 14 12 16 5 1 3 5 5 19 27 19 29 24 6 9 18 14 19 28 36 34 38 27 22 23 20 20 21 21 21 20
22 22 19 20 21 23 26 21 20 15 13 14 12 11 11 11 0 2 6 6 4 6 4 25 30 13 33 33 29 28 28 29 31 35 39 44 43 29 32 29 28 25 24 23 22
22 21 22 22 22 24 21 18 19 19 13 15 15 13 13 13 6 11 4 8 10 9 13 2 5 22 35 35 35 36 35 35 36 38 42 42 45 42 40 36 33 29 30 27 23
20 21 21 19 20 20 20 19 19 17 17 13 11 12 11 4 14 16 16 10 4 3 7 11 10 15 21 27 32 36 38 37 39 40 42 43 48 45 45 42 39 35 29 26 23
19 18 19 19 20 22 19 19 17 18 14 10 11 10 9 10 15 16 17 12 9 6 5 6 10 10 13 16 18 22 25 34 38 39 40 44 43 39 42 42 38 36 31 28 26
Wind_Direction
322 318 314 309 305 305 305 303 304 303 301 299 299 299 298 299 293 292 288 292 286 283 282 278 278 271 266 262 263 265 264 262 260 261 258 269 264 263 272 272 275 282 286 295 296
321 319 318 315 310 307 305 305 305 305 305 302 303 302 302 303 298 298 307 305 299 293 285 275 271 270 262 261 261 257 261 261 257 263 266 264 263 268 271 265 264 267 274 293 312
323 319 318 315 314 313 311 310 311 312 310 309 307 306 305 303 309 308 329 311 302 297 291 283 277 268 263 263 256 259 258 264 262 268 270 267 261 266 266 262 255 258 264 276 290
325 323 321 319 316 314 313 314 315 316 316 316 319 318 313 319 302 318 313 307 304 302 294 287 278 265 264 261 262 260 262 262 262 270 272 267 264 259 262 262 260 264 263 275 279
323 321 321 318 315 314 313 314 318 318 320 322 325 326 326 331 323 326 316 314 311 309 296 287 278 271 264 269 264 261 261 263 264 265 267 268 261 261 260 261 261 262 265 267 275
320 319 316 315 315 313 309 315 318 319 327 336 338 337 333 326 334 330 319 313 310 303 299 290 283 279 274 269 265 269 266 261 262 263 265 262 261 263 256 261 260 262 263 266 272
319 318 316 315 313 312 309 311 318 322 331 343 349 344 339 332 335 329 325 318 312 308 301 294 284 277 283 275 271 269 265 265 262 262 261 266 262 254 254 259 260 261 263 265 270
320 319 318 315 312 309 307 307 308 321 341 353 356 343 332 346 337 330 328 324 326 313 304 302 293 280 273 276 277 272 267 263 259 263 265 259 257 251 258 258 259 260 263 264 267
311 312 312 309 307 305 305 308 337 359 4 9 358 343 334 348 336 334 330 321 317 314 310 306 299 285 280 271 270 266 262 262 266 263 260 259 258 251 257 259 261 261 261 265 267
307 307 308 307 304 302 304 336 12 16 9 3 353 343 343 330 327 323 329 323 319 314 306 301 297 286 279 268 263 265 265 265 264 265 260 258 259 257 258 262 262 261 260 263 266
296 293 298 297 298 303 337 9 360 358 351 336 337 336 336 333 332 327 327 324 320 313 303 298 289 282 282 276 271 269 267 268 266 269 262 261 259 258 260 258 259 262 262 264 267
300 291 283 275 270 265 24 3 359 351 346 344 343 342 339 340 330 333 340 324 318 308 305 298 287 289 285 282 275 269 266 263 267 272 265 262 261 261 261 260 260 261 264 265 268
305 295 285 267 236 42 19 11 13 360 355 356 0 350 348 339 331 333 327 324 317 311 306 296 294 295 289 282 276 269 265 264 263 265 266 264 261 260 261 264 264 264 267 266 267
306 298 293 54 56 42 38 27 12 12 356 5 5 0 352 340 335 338 342 331 323 311 308 303 308 300 288 280 278 273 271 264 263 260 256 260 260 261 263 262 263 264 266 265 267
309 300 32 56 39 40 33 26 23 36 351 8 5 6 351 345 338 342 350 333 318 316 312 302 300 297 292 287 281 273 273 265 261 258 258 255 259 259 263 261 264 268 269 270 270
313 320 41 52 51 38 35 34 44 13 356 2 7 355 351 348 346 347 343 339 333 323 319 309 311 301 296 293 282 278 270 265 259 256 252 251 254 258 260 262 264 267 271 271 270
318 21 47 54 31 39 37 40 12 6 18 5 357 354 348 350 347 349 343 340 336 328 324 318 324 318 299 287 282 274 268 260 254 248 250 250 251 252 269 267 275 265 276 275 273
320 31 44 38 41 38 37 24 7 11 7 7 0 354 357 355 354 351 351 344 353 337 320 322 315 317 329 291 284 269 268 258 255 255 254 249 248 247 255 262 266 263 273 278 274
321 31 33 25 37 31 23 9 7 8 14 4 1 4 4 2 358 360 357 356 354 339 329 317 315 297 298 285 292 268 269 268 261 268 263 250 246 248 252 257 264 269 275 280 280
9 25 25 26 28 27 16 7 9 16 13 11 3 10 2 358 1 6 6 14 358 10 335 310 303 296 312 300 209 186 198 269 259 261 260 249 241 239 243 243 253 263 275 283 285
16 12 18 24 27 21 10 8 7 16 17 15 9 1 3 3 9 5 10 4 19 7 14 277 291 285 289 316 305 216 213 277 266 258 259 250 244 234 238 228 237 258 278 293 290
11 7 17 22 14 15 12 8 9 19 30 14 16 13 13 10 8 6 8 15 349 338 334 283 290 278 287 296 345 349 187 248 260 257 249 254 252 229 208 228 248 263 276 289 296
1 11 18 19 11 4 9 10 18 19 23 20 17 25 20 8 16 65 70 1 347 282 341 310 322 292 302 344 8 293 203 238 257 246 250 244 242 222 226 242 259 269 275 278 290
10 6 13 18 13 7 3 13 13 24 20 24 18 9 15 17 168 318 300 355 358 244 241 312 249 223 254 257 287 272 262 258 247 252 246 238 234 231 229 251 257 268 267 272 280
13 8 6 360 3 1 7 11 10 14 30 19 22 25 17 14 279 274 311 281 273 254 229 143 215 225 256 259 264 266 256 253 244 248 243 238 236 238 240 250 254 261 262 262 267
25 19 12 1 5 5 11 14 13 18 12 12 10 9 10 271 255 276 274 269 17 151 153 160 183 210 220 233 251 265 260 245 242 245 242 240 236 241 243 246 247 253 250 255 257
31 30 20 11 7 5 10 15 10 7 20 25 16 3 356 250 256 265 261 254 234 215 179 132 172 181 204 211 224 229 234 255 252 249 244 234 236 242 239 239 242 245 248 248 248